Weather in Beldezh № 3

Russia / Omsk Oblast     54°23′44″N   71°45′43″E
temp.,
°C
wind,
m/s
gust,
m/s
humid.,
%
clouds,
%
prec.,
mm/h
press.,
hPa
HPBL,
m
13 april, tue
tue1300:00+2nnw39100100 0.1 1035199
03:00+2nnw3799100 0.0 1036147
06:00+1nne469662 0.0 1038208
09:000nnw23986 0.0 104083
12:00+2nw24100100 0.0 1041113
15:00+2wnw34100100 0.0 1041175
18:00+2w3599100 0.0 1041189
21:00+1w359456 0.0 104099
14 april, wed
wed1400:000wsw369620 0.0 104089
03:000wsw38968 0.0 1038143
06:00−1wsw4109738 0.0 1037208
09:00+1w51298100 0.0 1037330
12:00+4wsw61291100 0.0 1034371
15:00+7w712775 0.0 1032431
18:00+7w512795 0.0 1031374
21:00+3w49875 0.0 1030125
15 april, thu
thu1500:00+3w36923 0.0 103069
03:00+3w34925 0.0 102850
06:00+3wsw34912 0.0 102857
09:00+6wsw378819 0.0 1027172
12:00+11w46795 0.0 1026336
15:00+14w56735 0.0 1024555
18:00+14w47755 0.0 1023582
21:00+10wsw35885 0.0 102275
16 april, fri
fri1600:00+9wsw36875 0.0 102078
03:00+8wsw47865 0.0 1019101
06:00+6wsw48855 0.0 1018118
09:00+10wsw497350 0.0 1016254
12:00+14wsw575250 0.0 1015576
15:00+16w56440 0.0 10131030
18:00+16wnw46500 0.0 10121551
21:00+8n7108249 0.0 1014532
17 april, sat
sat1700:00+4ne81187100 0.0 1015653
03:00+3ne71196100 0.1 1016711
06:00+1nne7108397 0.3 1018696
09:000ne686864 0.0 1020744
12:00+2nne555323 0.0 10201168
15:00+4n44395 0.0 10191563
18:00+5nnw34365 0.0 10191809
21:00+2n23515 0.0 101944